Location: Armidale
(30.5016°S, 151.6662°E)
Time: 06:24:19
(UTC+10:00)

Envisat - Pass Details

Date: 05 July 2022
Orbit: 763 x 765 km, 98.2° (Epoch: 09 August)

Event Time Altitude Azimuth Distance (km) Brightness Sun altitude
Rises 17:29:56 0° 190° (S) 3,259 6.1 -5.7°
Reaches altitude 10° 17:33:02 10° 209° (SSW) 2,324 5.6 -6.3°
Maximum altitude 17:36:11 17° 247° (WSW) 1,896 5.7 -7.0°
Drops below altitude 10° 17:39:19 10° 286° (WNW) 2,308 7.2 -7.6°
Sets 17:42:24 0° 306° (NW) 3,225 8.1 -8.2°
